EW1577 Weather Reports


Display with metric or nautical units.
time (UTC)temp
F
wind
direction
speed
MPH
gust
MPH
rain 1hr
in
rain 24hr
in
rain mn
in
humidity
%
barometer
mb
20181018034449 40 225 4.0 9.0 0.00 0.00 0.00 61 1028.3
20181018033952 40 315 5.0 9.0 0.00 0.00 0.00 61 1028.3
20181018033449 40 248 4.0 7.0 0.00 0.00 0.00 61 1028.3
20181018032942 40 180 3.0 5.0 0.00 0.00 0.00 61 1028.3
20181018032431 40 270 3.0 5.0 0.00 0.00 0.00 61 1028.0
20181018031929 41 113 3.0 5.0 0.00 0.00 0.00 60 1028.7
20181018031428 41 315 3.0 7.0 0.00 0.00 0.00 59 1028.7
20181018030919 41 338 4.0 7.0 0.00 0.00 0.00 59 1027.7
20181018030411 41 248 2.0 5.0 0.00 0.00 0.00 59 1028.0
20181018025912 42 293 3.0 5.0 0.00 0.00 0.00 59 1028.0
20181018025413 42 270 3.0 6.0 0.00 0.00 0.00 58 1028.0
20181018024908 42 270 3.0 6.0 0.00 0.00 0.00 58 1027.7
20181018024401 42 225 3.0 6.0 0.00 0.00 0.00 58 1027.3
20181018023900 42 338 4.0 7.0 0.00 0.00 0.00 58 1028.0
20181018023400 43 180 4.0 9.0 0.00 0.00 0.00 58 1027.3
20181018022901 43 23 5.0 9.0 0.00 0.00 0.00 58 1027.3
20181018022359 43 203 4.0 9.0 0.00 0.00 0.00 58 1027.3
20181018021859 43 248 5.0 9.0 0.00 0.00 0.00 58 1027.3
20181018021351 43 23 5.0 9.0 0.00 0.00 0.00 59 1027.3
20181018020846 43 293 4.0 9.0 0.00 0.00 0.00 59 1027.7
20181018020351 43 270 3.0 7.0 0.00 0.00 0.00 59 1027.0
20181018015840 44 270 3.0 7.0 0.00 0.00 0.00 58 1027.3
20181018015340 44 203 2.0 6.0 0.00 0.00 0.00 58 1027.0
20181018014844 44 270 3.0 10.0 0.00 0.00 0.00 56 1027.0
20181018014332 44 90 3.0 10.0 0.00 0.00 0.00 56 1026.6
20181018013824 45 293 3.0 7.0 0.00 0.00 0.00 56 1027.3
20181018013318 45 338 4.0 7.0 0.00 0.00 0.00 56 1027.0
20181018012822 45 225 4.0 6.0 0.00 0.00 0.00 58 1026.3
20181018012311 45 158 2.0 4.0 0.00 0.00 0.00 58 1026.6
20181018011814 45 203 2.0 4.0 0.00 0.00 0.00 58 1026.0
20181018011304 45 270 2.0 4.0 0.00 0.00 0.00 56 1026.6
20181018010809 46 270 2.0 6.0 0.00 0.00 0.00 56 1025.5
20181018010307 46 293 3.0 6.0 0.00 0.00 0.00 56 1026.3
20181018005802 45 270 2.0 5.0 0.00 0.00 0.00 56 1025.5
20181018005259 45 270 2.0 5.0 0.00 0.00 0.00 56 1026.0
20181018004802 45 270 2.0 3.0 0.00 0.00 0.00 55 1025.2
20181018004259 46 225 1.0 5.0 0.00 0.00 0.00 55 1026.3
20181018003802 46 68 2.0 5.0 0.00 0.00 0.00 55 1025.5
20181018003258 46 338 1.0 4.0 0.00 0.00 0.00 54 1025.2
20181018002758 46 225 2.0 6.0 0.00 0.00 0.00 53 1026.0
20181018002256 47 248 2.0 6.0 0.00 0.00 0.00 53 1025.2
20181018001755 47 225 3.0 6.0 0.00 0.00 0.00 51 1025.5
20181018001251 47 338 3.0 5.0 0.00 0.00 0.00 51 1025.2
20181018000747 47 270 2.0 4.0 0.00 0.00 0.00 50 1024.8
20181018000255 47 113 3.0 7.0 0.00 0.00 0.00 50 1025.2
20181017235739 47 203 4.0 7.0 0.00 0.00 0.00 50 1024.8
20181017235234 48 23 2.0 7.0 0.00 0.00 0.00 50 1025.2
20181017234725 48 338 3.0 7.0 0.00 0.00 0.00 50 1024.5
20181017234222 48 225 3.0 8.0 0.00 0.00 0.00 49 1024.5
20181017233721 48 248 3.0 8.0 0.00 0.00 0.00 49 1024.2
20181017233204 48 248 3.0 6.0 0.00 0.00 0.00 48 1024.5
20181017232709 49 248 4.0 7.0 0.00 0.00 0.00 48 1024.2
20181017232207 49 293 3.0 7.0 0.00 0.00 0.00 46 1023.8
20181017231701 49 248 4.0 10.0 0.00 0.00 0.00 46 1023.8
20181017231214 49 270 5.0 10.0 0.00 0.00 0.00 45 1024.2
20181017230656 49 45 4.0 9.0 0.00 0.00 0.00 45 1023.5
20181017230149 50 270 4.0 8.0 0.00 0.00 0.00 45 1024.2
20181017225648 50 225 4.0 8.0 0.00 0.00 0.00 45 1023.5
20181017225152 50 270 5.0 12.0 0.00 0.00 0.00 45 1023.8
20181017224642 51 158 6.0 12.0 0.00 0.00 0.00 44 1023.5
20181017224134 51 248 5.0 7.0 0.00 0.00 0.00 43 1023.2
20181017223632 51 270 5.0 7.0 0.00 0.00 0.00 43 1023.2
20181017223145 52 248 4.0 7.0 0.00 0.00 0.00 43 1023.2
20181017222621 52 248 4.0 8.0 0.00 0.00 0.00 41 1022.8
20181017222114 52 225 4.0 6.0 0.00 0.00 0.00 41 1023.2
20181017221608 52 248 5.0 9.0 0.00 0.00 0.00 40 1022.5
20181017221058 53 203 5.0 10.0 0.00 0.00 0.00 40 1022.8
20181017220559 53 270 7.0 10.0 0.00 0.00 0.00 40 1022.8
20181017220057 53 225 5.0 10.0 0.00 0.00 0.00 40 1022.8
20181017215549 53 135 4.0 8.0 0.00 0.00 0.00 40 1023.2
20181017215054 53 225 4.0 8.0 0.00 0.00 0.00 40 1022.5
20181017214539 53 225 4.0 8.0 0.00 0.00 0.00 40 1022.5
20181017214040 53 180 4.0 12.0 0.00 0.00 0.00 40 1022.0
20181017213535 54 270 6.0 12.0 0.00 0.00 0.00 40 1022.0
20181017213040 54 248 7.0 13.0 0.00 0.00 0.00 40 1022.5
20181017212537 54 225 7.0 13.0 0.00 0.00 0.00 40 1021.7
20181017212034 54 270 6.0 13.0 0.00 0.00 0.00 41 1022.5
20181017211528 55 315 6.0 12.0 0.00 0.00 0.00 40 1022.5
20181017211032 56 270 5.0 9.0 0.00 0.00 0.00 40 1022.0
20181017210524 56 225 5.0 9.0 0.00 0.00 0.00 39 1021.7
20181017210020 56 225 5.0 10.0 0.00 0.00 0.00 40 1022.5
20181017205513 56 270 7.0 10.0 0.00 0.00 0.00 39 1021.4
20181017205004 56 203 6.0 10.0 0.00 0.00 0.00 39 1021.4
20181017204501 55 270 6.0 10.0 0.00 0.00 0.00 39 1021.7
20181017203957 55 270 6.0 10.0 0.00 0.00 0.00 39 1021.4
20181017203448 57 270 6.0 16.0 0.00 0.00 0.00 37 1021.4
20181017202933 57 248 7.0 16.0 0.00 0.00 0.00 37 1021.4
20181017202432 57 248 7.0 11.0 0.00 0.00 0.00 37 1021.4
20181017201919 57 293 6.0 11.0 0.00 0.00 0.00 37 1021.7
20181017201424 56 293 6.0 11.0 0.00 0.00 0.00 39 1021.0
20181017200921 56 293 6.0 11.0 0.00 0.00 0.00 37 1021.0
20181017200420 56 270 6.0 11.0 0.00 0.00 0.00 40 1021.0
20181017195920 56 293 6.0 11.0 0.00 0.00 0.00 40 1021.0
20181017195410 57 203 5.0 10.0 0.00 0.00 0.00 37 1021.7
20181017194901 59 180 5.0 10.0 0.00 0.00 0.00 35 1020.7
20181017194358 58 338 5.0 8.0 0.00 0.00 0.00 35 1020.7
20181017193853 57 23 4.0 10.0 0.00 0.00 0.00 37 1020.7
20181017193350 57 113 6.0 11.0 0.00 0.00 0.00 35 1020.3
20181017192845 56 293 6.0 11.0 0.00 0.00 0.00 37 1020.7
20181017192332 56 225 6.0 10.0 0.00 0.00 0.00 37 1020.7
20181017191826 58 90 5.0 11.0 0.00 0.00 0.00 35 1020.3
20181017191314 58 270 6.0 11.0 0.00 0.00 0.00 35 1020.7
20181017190815 58 225 6.0 10.0 0.00 0.00 0.00 35 1020.3
20181017190308 58 203 6.0 10.0 0.00 0.00 0.00 35 1020.0
20181017185810 58 315 6.0 12.0 0.00 0.00 0.00 35 1020.3
20181017185307 58 203 8.0 12.0 0.00 0.00 0.00 34 1020.3
20181017184755 58 338 7.0 11.0 0.00 0.00 0.00 32 1020.3
20181017184255 58 293 6.0 10.0 0.00 0.00 0.00 35 1020.7
20181017183754 58 225 7.0 10.0 0.00 0.00 0.00 32 1020.3
20181017183253 58 180 5.0 10.0 0.00 0.00 0.00 35 1020.7
20181017182753 58 248 7.0 12.0 0.00 0.00 0.00 32 1020.3
20181017182254 58 270 7.0 12.0 0.00 0.00 0.00 31 1020.3
20181017181748 58 23 6.0 10.0 0.00 0.00 0.00 32 1020.0
20181017181246 58 270 5.0 9.0 0.00 0.00 0.00 32 1020.0
20181017180742 58 90 7.0 12.0 0.00 0.00 0.00 32 1020.0
20181017180234 57 203 7.0 12.0 0.00 0.00 0.00 34 1020.7
20181017175729 58 225 7.0 11.0 0.00 0.00 0.00 34 1020.7
20181017175225 58 270 7.0 13.0 0.00 0.00 0.00 32 1020.7
20181017174721 59 203 6.0 13.0 0.00 0.00 0.00 34 1020.0
20181017174214 58 135 7.0 13.0 0.00 0.00 0.00 34 1020.0
20181017173704 59 270 6.0 12.0 0.00 0.00 0.00 35 1020.7
20181017173204 58 203 6.0 13.0 0.00 0.00 0.00 35 1020.0
20181017172703 58 23 7.0 13.0 0.00 0.00 0.00 34 1020.0
20181017172206 58 293 8.0 13.0 0.00 0.00 0.00 34 1020.3
20181017171709 58 225 6.0 13.0 0.00 0.00 0.00 34 1020.7
20181017171202 58 293 8.0 14.0 0.00 0.00 0.00 35 1020.0
20181017170657 58 270 9.0 14.0 0.00 0.00 0.00 35 1020.7
20181017170153 58 0 6.0 16.0 0.00 0.00 0.00 35 1020.3
20181017165653 58 225 8.0 16.0 0.00 0.00 0.00 35 1020.3
20181017165155 58 270 9.0 16.0 0.00 0.00 0.00 35 1020.3
20181017164653 58 293 7.0 13.0 0.00 0.00 0.00 35 1020.3
20181017164145 58 225 8.0 13.0 0.00 0.00 0.00 37 1020.0
20181017163641 57 225 6.0 13.0 0.00 0.00 0.00 39 1020.0
20181017163133 57 270 7.0 11.0 0.00 0.00 0.00 40 1020.7
20181017162621 57 180 7.0 12.0 0.00 0.00 0.00 40 1020.7
20181017162116 57 203 7.0 12.0 0.00 0.00 0.00 40 1020.0
20181017161615 56 270 7.0 16.0 0.00 0.00 0.00 40 1020.7
20181017161112 57 225 7.0 16.0 0.00 0.00 0.00 43 1020.0
20181017160606 57 225 5.0 8.0 0.00 0.00 0.00 48 1022.0
20181017160101 56 45 3.0 6.0 0.00 0.00 0.00 50 1019.3
20181017155603 56 0.0 0.0 0.00 0.00 0.00 53
20181017143005 48 248 3.0 6.0 0.00 0.00 0.00 70 1020.7
20181017142508 47 203 2.0 5.0 0.00 0.00 0.00 70 1020.3
20181017141958 47 203 2.0 5.0 0.00 0.00 0.00 70 1020.7
20181017141455 46 225 2.0 5.0 0.00 0.00 0.00 74 1021.0
20181017140959 47 203 3.0 4.0 0.00 0.00 0.00 73 1021.0
20181017140445 47 225 2.0 4.0 0.00 0.00 0.00 74 1020.3
20181017135945 46 225 2.0 4.0 0.00 0.00 0.00 75 1020.7
20181017135433 46 225 2.0 4.0 0.00 0.00 0.00 75 1020.7
20181017134934 46 203 2.0 4.0 0.00 0.00 0.00 75 1020.7
20181017134431 46 248 2.0 4.0 0.00 0.00 0.00 75 1021.0
20181017133927 46 248 3.0 4.0 0.00 0.00 0.00 75 1020.0
20181017133426 46 270 3.0 3.0 0.00 0.00 0.00 76 1020.0
20181017132923 44 225 3.0 4.0 0.00 0.00 0.00 79 1020.3
20181017132422 44 225 3.0 4.0 0.00 0.00 0.00 79 1020.3
20181017131928 45 180 1.0 2.0 0.00 0.00 0.00 79 1019.7
20181017131423 45 248 2.0 5.0 0.00 0.00 0.00 81 1019.7
20181017130923 44 248 3.0 5.0 0.00 0.00 0.00 83 1020.3
20181017130417 43 180 3.0 8.0 0.00 0.00 0.00 86 1019.3
20181017125918 43 248 3.0 8.0 0.00 0.00 0.00 88 1019.7
20181017125412 42 270 3.0 4.0 0.00 0.00 0.00 91 1019.7
20181017124913 41 248 2.0 3.0 0.00 0.00 0.00 98 1020.0
20181017124407 41 203 2.0 3.0 0.00 0.00 0.00 98 1019.3
20181017123906 0 0.0 0.0 0.00 0.00 0.00 1019.0
20181017123402 0 0.0 0.0 0.00 0.00 0.00 1019.0
20181017122859 0 0.0 0.0 0.00 0.00 0.00 1019.0
20181017122401 0 0.0 0.0 0.00 0.00 0.00 1020.0
20181017121851 0 0.0 0.0 0.00 0.00 0.00 1019.7
20181017121341 0 0.0 0.0 0.00 0.00 0.00 1019.3
20181017120839 0 225 2.0 2.0 0.00 0.00 0.00 1019.0
20181017120337 0 225 2.0 2.0 0.00 0.00 0.00 1019.0
20181017115831 0 0.0 0.0 0.00 0.00 0.00 1019.0
20181017115333 39 203 1.0 1.0 0.00 0.00 0.00 98 1019.0
20181017114835 39 203 1.0 2.0 0.00 0.00 0.00 98 1019.7
20181017114323 39 248 1.0 2.0 0.00 0.00 0.00 98 1019.7
20181017113821 39 225 1.0 4.0 0.00 0.00 0.00 98 1019.0
20181017113316 39 180 2.0 5.0 0.00 0.00 0.00 98 1019.0
20181017112814 39 203 2.0 5.0 0.00 0.00 0.00 98 1018.5
20181017112309 39 225 1.0 4.0 0.00 0.00 0.00 98 1019.3
20181017111807 39 180 1.0 4.0 0.00 0.00 0.00 98 1019.3
20181017111304 39 180 2.0 6.0 0.00 0.00 0.00 98 1019.0
20181017110754 39 180 4.0 6.0 0.00 0.00 0.00 98 1019.3
20181017110247 39 113 2.0 6.0 0.00 0.00 0.00 98 1019.0
20181017105744 39 203 2.0 6.0 0.00 0.00 0.00 98 1019.7
20181017105242 39 68 3.0 6.0 0.00 0.00 0.00 98 1018.5
20181017104738 39 225 2.0 4.0 0.00 0.00 0.00 98 1018.5
20181017104236 39 180 2.0 4.0 0.00 0.00 0.00 98 1018.5
20181017103733 38 293 2.0 4.0 0.00 0.00 0.00 98 1018.2
20181017103229 39 225 1.0 7.0 0.00 0.00 0.00 98 1019.0
20181017102728 38 225 3.0 7.0 0.00 0.00 0.00 98 1019.3
20181017102231 38 225 2.0 7.0 0.00 0.00 0.00 98 1018.5
20181017101722 38 225 2.0 7.0 0.00 0.00 0.00 98 1019.3
20181017101222 37 225 2.0 3.0 0.00 0.00 0.00 98 1018.5
20181017100709 37 248 0.0 1.0 0.00 0.00 0.00 98 1018.2
20181017100206 0 113 0.0 0.0 0.00 0.00 0.00 1019.3
20181017095657 0 180 0.0 0.0 0.00 0.00 0.00 1017.9
20181017095151 37 90 0.0 0.0 0.00 0.00 0.00 98 1021.0
20181017094647 37 90 0.0 0.0 0.00 0.00 0.00 98 1017.9
20181017094141 0 0.0 0.0 0.00 0.00 0.00